Location: Breckenridge
(39.4820°N, 106.0380°W)
Time: 20:23:47
(UTC-06:00)

ISS - Pass Details

Date: 21 March 2019
Orbit: 408 x 410 km, 51.6° (Epoch: 20 April)

Event Time Altitude Azimuth Distance (km) Brightness Sun altitude
Rises 21:03:50 0° 242° (WSW) 2,318 0.7 -21.0°
Reaches altitude 10° 21:05:57 10° 248° (WSW) 1,460 -0.4 -21.4°
Maximum altitude 21:09:09 52° 326° (NW) 513 -3.1 -22.0°
Enters shadow 21:09:10 52° 326° (NW) 513 -3.1 -22.0°
